This demonstration page uses our WeatherBlox Daily Observations layout. Learn more.

Left ArrowRight Arrow

Hourly Observations for November 27, 2022

Temp ( °F °C ) Dew Point ( °F °C ) Humidity (%) Winds ( mph kmh ) Pressure ( in mb ) Visibility ( mi km ) Precip ( " mm )
12:53 am 00:53 Clear 34 1.1 23 -5 64 64 SSW 15 24 29.79 1009 10 16 0.00 0.00
1:53 am 01:53 Clear 35 1.7 23 -5 61 61 SSW 18 30 29.76 1008 10 16 0.00 0.00
2:53 am 02:53 Clear 34 1.1 23 -5 64 64 SW 13 20 29.75 1007 10 16 0.00 0.00
3:53 am 03:53 Clear 35 1.7 22 -5.6 58 58 SW 15 24 29.71 1006 10 16 0.00 0.00
4:53 am 04:53 Cloudy 36 2.2 23 -5 59 59 SW 16 26 29.69 1005 10 16 0.00 0.00
5:53 am 05:53 Cloudy 37 2.8 23 -5 56 56 SW 22 35 29.65 1004 10 16 0.00 0.00
6:53 am 06:53 Clear 36 2.2 23 -5 59 59 SW 22 35 29.63 1003 10 16 0.00 0.00
7:53 am 07:53 Partly Cloudy 38 3.3 22 -5.6 52 52 SW 25 41 29.60 1002 10 16 0.00 0.00
8:53 am 08:53 Partly Cloudy 38 3.3 23 -5 54 54 SW 22 35 29.58 1002 10 16 0.00 0.00
9:53 am 09:53 Sunny 41 5 22 -5.6 46 46 SW 18 30 29.57 1001 10 16 0.00 0.00
10:53 am 10:53 Sunny 42 5.6 22 -5.6 44 44 SW 21 33 29.54 1000 10 16 0.00 0.00
11:53 am 11:53 Sunny 44 6.7 22 -5.6 41 41 SSW 35 56 29.47 998 10 16 0.00 0.00
12:53 pm 12:53 Sunny 44 6.7 23 -5 43 43 SSW 23 37 29.43 997 10 16 0.00 0.00
1:53 pm 13:53 Sunny 47 8.3 25 -3.9 42 42 SW 30 48 29.38 995 10 16 0.00 0.00
2:53 pm 14:53 Mostly Sunny 47 8.3 25 -3.9 42 42 WSW 28 44 29.39 995 10 16 0.00 0.00
3:53 pm 15:53 Mostly Sunny 41 5 27 -2.8 57 57 W 22 35 29.43 997 10 16 0.00 0.00
4:53 pm 16:53 Mostly Cloudy 36 2.2 27 -2.8 69 69 WNW 16 26 29.46 998 10 16 0.00 0.00
5:53 pm 17:53 Mostly Clear 32 0 26 -3.3 78 78 W 15 24 29.49 999 10 16 0.00 0.00
6:24 pm 18:24 Mostly Cloudy 32 0 26 -3.3 78 78 W 13 20 29.56 1001 10 16 0.00 0.00
6:53 pm 18:53 Cloudy with Light Snow 32 0 27 -2.8 81 81 W 15 24 29.53 1000 10 16 0.01 0.13
7:25 pm 19:25 Cloudy 31 -0.6 26 -3.3 82 82 WNW 21 33 29.59 1002 9 14 0.01 0.25
7:42 pm 19:42 Cloudy 30 -1.1 24 -4.4 78 78 WNW 26 43 29.62 1003 10 16 0.01 0.25
7:53 pm 19:53 Cloudy 29 -1.7 23 -5 78 78 NW 26 43 29.58 1002 10 16 0.01 0.25
8:22 pm 20:22 Cloudy 28 -2.2 21 -6.1 75 75 NW 26 43 29.66 1004 10 16 0.00 0.00
8:53 pm 20:53 Windy with Snow Likely 28 -2.2 22 -5.6 77 77 WNW 22 35 29.62 1003 8 13 0.01 0.13
9:53 pm 21:53 Cloudy 27 -2.8 21 -6.1 78 78 WNW 17 28 29.65 1004 10 16 0.01 0.13
10:27 pm 22:27 Cloudy 27 -2.8 21 -6.1 78 78 WNW 18 30 29.74 1007 10 16 0.00 0.00
10:53 pm 22:53 Cloudy 26 -3.3 19 -7.2 74 74 NW 20 31 29.68 1005 10 16 0.00 0.00
11:08 pm 23:08 Cloudy 26 -3.3 20 -6.7 77 77 W 21 33 29.77 1008 10 16 0.00 0.00
11:53 pm 23:53 Cloudy 25 -3.9 19 -7.2 78 78 WNW 23 37 29.70 1006 10 16 0.00 0.00

Powered by AerisWeather